Theta_e
307 307 304 303 302 303 303 301 300 300 301 300 305 309 309 308 305 303 303 302 303 307 304 309 308 307 305 303 307 308 306 314 313 308 310 307 312 315 312 309 310 313 314 315 314
306 304 303 301 301 301 301 300 301 300 300 300 304 306 307 305 302 301 301 301 303 307 308 307 306 305 303 302 304 303 303 309 304 304 307 307 306 308 308 308 306 309 312 315 314
302 301 301 301 301 301 301 301 301 300 299 299 302 300 301 299 300 305 304 301 309 309 307 306 306 305 302 299 301 300 304 304 304 304 305 305 305 306 306 307 308 308 310 312 312
300 300 301 301 300 300 301 300 300 300 299 299 299 299 299 299 300 305 308 310 309 309 306 303 305 301 296 297 300 301 301 303 303 306 304 304 305 304 305 305 306 308 308 311 310
299 299 299 300 300 300 300 300 300 300 299 298 299 298 298 299 299 299 299 304 304 304 304 302 302 301 297 296 298 298 299 302 304 305 305 305 304 304 303 303 305 306 307 308 311
299 299 299 299 300 300 300 300 299 299 298 298 298 298 298 298 297 297 297 296 296 296 297 300 300 301 299 297 296 298 298 300 302 303 303 303 303 303 300 300 303 304 305 307 310
299 299 299 299 300 300 300 299 299 298 298 298 298 297 298 298 297 298 297 297 297 297 296 296 298 298 298 297 298 299 298 297 298 300 302 303 301 297 296 299 301 302 304 306 306
299 299 299 299 300 300 299 299 299 298 297 297 297 299 299 297 297 296 296 296 296 296 296 295 296 297 296 297 296 297 297 297 298 297 300 302 302 295 297 299 298 299 299 301 301
299 299 300 300 300 299 299 299 298 298 298 299 299 298 297 297 297 297 297 297 296 296 295 295 296 296 297 295 294 295 296 295 299 297 298 299 299 292 295 298 295 297 297 298 298
299 299 298 298 298 298 299 298 298 299 299 298 298 298 297 296 297 297 297 297 296 296 295 295 295 293 292 293 295 296 295 295 297 297 296 295 293 292 291 293 292 295 296 295 296
298 298 298 298 297 298 298 297 298 299 298 297 296 296 297 297 296 297 297 297 296 295 294 294 293 293 293 293 293 294 293 295 296 295 295 293 292 291 291 290 290 292 293 294 294
298 298 298 298 298 298 296 296 296 296 297 296 296 297 296 297 297 297 297 296 295 294 294 293 292 293 293 293 295 296 297 297 295 296 295 293 291 290 290 290 289 290 291 292 292
298 298 298 298 297 297 297 296 296 296 296 297 297 296 296 297 296 296 296 296 295 295 294 293 295 294 294 295 295 295 296 296 296 296 294 294 295 293 289 289 289 289 289 291 292
298 298 298 297 297 297 297 296 295 296 295 297 297 296 295 296 295 295 294 295 295 295 294 293 293 294 294 295 296 298 296 297 298 299 299 295 299 293 290 288 286 287 287 289 290
298 298 298 296 296 297 297 296 295 298 294 296 296 295 295 295 295 295 293 294 295 294 293 294 292 293 295 295 293 297 295 297 299 299 299 297 299 291 289 289 287 286 287 288 289
297 298 297 297 296 296 297 296 298 298 292 296 293 293 294 293 293 294 292 291 291 292 292 292 291 292 292 292 293 293 298 299 299 299 301 298 298 292 291 284 287 285 286 287 288
298 297 297 296 296 296 297 299 296 295 294 294 292 293 293 290 292 292 290 286 286 287 291 294 293 291 290 294 293 295 298 300 300 300 302 290 298 286 283 285 286 286 286 287 287
298 297 297 295 296 296 298 292 296 295 293 292 293 293 291 288 290 289 288 285 286 285 285 287 290 289 289 291 294 295 292 300 299 297 293 291 300 289 283 288 287 286 286 287 287
297 298 297 295 294 297 295 291 291 292 291 292 292 292 290 288 288 289 286 283 284 286 283 283 290 292 292 292 293 296 296 292 297 289 291 287 280 285 288 288 287 286 286 286 286
297 300 297 295 294 294 292 294 291 289 289 291 292 289 289 286 286 287 283 285 286 287 284 282 283 288 292 290 292 293 291 296 297 299 298 283 279 285 286 288 287 286 285 286 286
296 298 295 295 293 293 290 291 289 287 289 289 289 287 287 285 285 287 282 284 286 286 286 282 279 285 290 286 286 289 290 291 291 293 293 283 283 276 281 286 286 286 285 286 285
295 293 294 294 290 287 289 290 289 287 287 286 286 286 286 286 286 287 287 286 286 286 289 288 280 283 282 281 280 282 284 286 293 292 286 284 281 278 280 284 286 286 285 285 285
295 294 294 294 288 289 290 289 288 287 287 287 286 286 285 285 285 286 287 287 286 287 287 289 283 282 283 282 283 280 276 275 281 282 284 290 282 279 283 284 285 284 285 285 284
295 291 294 293 290 288 288 289 289 287 287 287 286 285 285 285 284 284 286 287 286 287 289 287 283 284 283 283 282 283 280 272 278 284 279 283 280 280 282 284 284 284 285 285 284
295 290 291 289 290 288 287 287 289 288 286 286 286 286 282 281 284 285 286 285 286 285 284 281 281 284 283 284 284 285 285 277 277 273 283 277 279 277 281 284 284 284 284 285 284
295 294 291 290 289 288 287 286 287 288 285 285 285 285 285 282 279 279 281 284 284 283 282 281 282 284 286 287 287 287 286 283 280 269 269 268 279 277 283 283 283 284 284 284 284
295 294 292 290 290 290 287 288 287 287 287 287 286 285 285 285 284 283 283 283 281 281 280 276 278 281 282 284 285 285 283 283 279 274 277 281 280 279 283 284 284 284 284 283 284
Wind_Speed
17 16 14 14 13 14 14 13 11 12 11 11 7 8 9 8 8 9 12 5 7 8 13 16 14 11 10 9 9 7 2 13 10 7 3 2 4 15 7 6 7 9 7 7 14
16 15 14 13 14 15 14 12 12 13 13 11 7 7 7 6 7 10 6 6 8 10 12 15 14 12 6 6 8 5 5 8 4 6 3 3 7 4 3 5 6 11 12 15 15
17 15 14 14 15 15 14 12 13 13 13 11 7 10 3 2 4 3 3 8 4 12 12 11 10 13 7 6 8 5 8 3 2 5 8 3 3 6 4 5 7 5 14 15 23
18 18 16 14 15 15 12 13 13 12 12 10 9 6 2 2 1 3 8 9 10 12 10 11 10 8 5 7 9 4 8 8 4 8 0 2 1 1 5 3 8 11 11 17 31
21 20 18 16 15 14 12 14 13 13 12 10 7 4 1 2 2 3 3 6 7 8 11 12 11 8 5 5 6 5 3 5 18 19 13 10 5 4 3 7 7 7 12 20 29
24 22 20 17 14 14 13 14 14 12 10 7 4 2 2 1 4 2 2 3 6 7 9 14 7 13 5 5 7 4 10 14 16 12 16 5 3 5 6 9 2 8 13 19 22
25 23 20 16 12 13 13 13 12 10 7 4 1 2 2 2 2 1 2 3 3 5 8 10 15 8 4 3 11 7 4 5 6 10 5 11 4 4 10 2 7 10 14 16 14
24 22 18 14 10 12 11 12 10 7 3 1 3 0 0 1 0 1 2 4 5 5 7 6 6 14 6 4 5 2 3 6 3 8 6 12 9 4 8 6 11 11 12 13 12
25 19 16 13 12 12 12 11 6 2 1 2 0 1 1 2 2 4 4 4 4 4 4 4 7 5 4 3 5 2 4 5 3 8 3 4 4 7 9 12 13 12 11 12 13
23 18 17 16 15 13 10 8 5 3 3 2 2 2 1 1 3 1 2 6 3 4 4 6 4 2 2 4 8 6 4 4 6 4 5 4 4 6 13 15 13 13 13 13 12
23 16 16 18 16 8 7 4 3 3 6 3 2 1 0 4 1 4 7 4 3 3 4 3 3 7 13 6 4 4 2 5 2 3 6 3 5 5 8 15 15 14 13 11 10
25 16 17 19 13 6 9 4 6 3 1 3 2 2 2 5 1 6 9 2 2 4 2 2 6 9 5 6 6 5 6 5 1 4 5 3 4 4 6 5 8 11 12 10 9
26 18 16 16 9 9 9 5 4 6 2 2 4 4 2 3 3 7 10 3 1 2 5 6 3 2 7 5 7 6 7 6 4 4 6 7 3 3 3 6 9 11 9 7 5
27 16 14 13 7 11 6 4 4 6 3 2 1 2 4 2 4 8 10 3 1 2 3 5 4 4 4 5 6 7 6 8 8 4 3 2 4 4 4 2 5 8 9 8 4
26 14 11 8 7 8 8 2 6 2 3 3 3 2 5 4 1 8 9 3 1 3 2 4 4 3 4 1 2 2 1 5 5 10 2 6 1 1 6 3 1 5 6 7 6
27 9 7 9 7 8 3 5 6 4 6 2 3 4 4 7 4 7 9 9 2 3 1 1 1 3 3 3 1 3 2 4 3 2 7 8 6 3 5 5 4 2 6 7 8
25 2 11 11 8 6 3 5 3 4 2 2 3 4 2 4 4 6 4 6 3 5 5 4 2 4 4 2 2 3 4 2 3 4 3 3 8 3 1 2 5 6 7 8 8
18 6 11 20 10 4 6 3 4 3 3 2 2 2 3 6 3 5 3 4 4 3 2 3 4 4 7 2 1 2 3 3 5 4 3 2 4 2 4 7 12 11 9 10 10
18 10 10 22 9 2 3 1 2 3 2 2 1 2 2 2 3 4 4 0 3 2 3 3 3 0 2 3 2 2 4 2 2 2 3 1 5 5 4 6 9 10 11 12 13
20 7 8 23 8 3 3 3 2 3 2 1 3 3 2 4 3 3 2 3 4 2 3 2 3 2 2 3 2 2 2 1 2 3 4 2 3 3 5 6 6 7 9 11 12
16 5 14 25 7 5 3 2 2 4 3 3 2 2 2 2 1 1 2 3 1 4 4 4 3 5 1 5 2 4 3 3 1 2 2 2 5 5 6 4 6 7 9 10 12
14 3 17 20 6 3 2 2 2 3 5 4 3 2 1 1 2 1 1 1 2 2 2 1 3 1 5 3 1 2 1 2 1 2 3 3 3 1 3 5 8 8 8 8 9
20 6 11 12 3 3 1 2 3 3 4 3 3 3 3 2 2 2 2 2 5 4 1 1 1 3 6 4 1 4 3 1 1 2 0 2 3 3 4 6 7 7 6 8 9
10 4 7 11 6 2 4 1 2 4 3 3 3 4 3 3 3 2 3 4 4 8 7 2 2 4 4 5 1 3 3 2 2 2 2 3 3 3 4 5 5 5 6 9 8
12 2 2 4 4 5 3 4 2 3 3 6 3 4 2 3 3 2 3 4 4 9 4 3 1 1 2 3 2 2 1 1 2 2 3 4 4 5 7 6 6 5 5 6 7
9 5 4 4 7 5 6 6 4 3 4 4 4 3 2 2 5 3 2 2 2 5 4 4 1 1 3 1 2 1 3 5 3 2 3 1 2 3 6 7 6 5 4 4 5
18 5 2 6 5 3 3 4 4 2 5 5 3 2 5 3 1 0 1 2 1 1 4 3 2 3 3 4 2 3 2 0 1 2 5 2 5 4 4 7 8 4 3 6 6
Wind_Direction
352 345 343 336 339 335 332 335 336 329 320 322 309 291 292 291 279 273 269 254 202 185 192 205 201 203 195 193 186 170 214 238 226 161 210 229 215 229 234 207 186 194 218 224 198
347 343 340 341 339 336 335 335 332 326 320 321 313 293 301 288 287 280 263 213 179 184 196 202 199 197 188 196 193 169 199 229 191 180 221 226 182 231 198 208 211 222 221 231 202
345 341 337 338 337 333 330 328 328 323 318 318 307 310 312 289 309 35 348 190 140 198 200 199 203 199 194 193 200 203 234 221 200 223 216 226 219 227 189 241 246 240 233 214 192
345 340 331 329 331 333 331 329 328 320 315 313 304 320 304 196 264 138 109 129 187 201 201 203 197 180 182 197 203 226 239 231 248 240 81 229 238 225 231 258 270 251 257 209 185
342 336 330 320 320 328 325 330 327 321 316 310 304 295 239 215 171 166 191 203 223 220 214 213 207 193 190 200 207 236 226 230 240 249 262 269 290 284 343 318 288 225 197 191 185
341 335 332 322 313 322 320 323 324 321 316 307 296 249 200 172 127 141 206 235 238 241 231 220 219 226 247 218 177 240 223 238 251 248 239 212 256 181 25 353 66 151 161 168 176
344 339 331 325 315 318 321 323 325 327 325 316 287 165 183 133 165 280 304 295 284 253 239 239 225 199 231 287 249 251 271 300 240 213 229 180 193 88 348 52 105 113 135 149 160
346 342 341 334 326 324 319 321 321 327 333 82 109 57 178 84 209 302 305 307 272 261 248 240 227 230 223 280 332 255 174 233 258 173 227 171 223 17 9 140 104 109 120 132 139
348 350 351 348 332 325 317 314 299 302 127 108 54 83 101 24 4 310 303 313 278 228 237 206 209 207 173 150 347 318 228 217 266 189 126 168 172 358 43 127 96 107 114 120 126
349 346 342 335 323 317 316 314 264 226 208 230 275 297 121 30 316 321 307 318 258 204 189 193 193 131 61 125 219 225 220 235 212 187 57 88 88 28 43 99 91 93 107 115 121
347 341 341 338 327 316 318 298 229 229 218 228 191 188 97 355 127 13 345 319 208 190 186 174 147 210 212 202 178 152 193 229 252 58 89 58 95 37 43 64 67 85 95 105 114
345 329 333 338 333 322 320 272 250 237 213 169 133 107 126 7 148 12 359 348 181 219 148 33 231 235 204 201 205 192 195 224 94 33 94 116 79 52 40 54 65 81 82 93 118
344 326 327 335 323 316 322 306 234 174 182 175 145 72 33 358 89 10 7 343 237 250 208 190 217 349 185 189 192 214 206 195 186 109 69 129 109 159 63 73 67 64 72 87 113
341 324 322 331 314 321 314 318 197 175 93 223 183 46 355 90 84 40 14 359 325 282 310 234 307 252 200 216 180 232 203 206 142 146 212 188 227 203 156 95 40 38 34 39 58
343 325 322 325 308 325 315 236 162 147 351 6 40 11 55 68 11 12 12 10 338 303 79 260 349 344 220 133 174 251 234 175 188 176 109 190 99 172 138 184 148 27 31 33 28
343 313 335 328 304 327 324 159 146 59 252 138 33 19 28 28 37 359 17 27 37 304 192 278 44 35 305 306 272 344 105 59 67 126 218 188 180 216 185 191 152 69 52 47 37
347 282 358 345 318 314 173 159 37 164 30 48 4 16 32 3 49 23 46 18 37 37 10 339 21 340 13 289 162 92 125 178 194 193 214 322 183 214 253 144 129 125 78 63 65
349 241 345 354 332 292 176 67 210 92 73 37 35 316 86 15 56 24 62 28 26 52 47 34 324 3 339 41 344 83 164 199 197 189 204 22 180 162 220 129 116 102 94 77 83
341 257 292 343 333 284 185 94 342 46 31 16 349 83 77 32 47 73 34 298 238 34 140 34 265 276 316 348 332 145 216 198 120 115 90 111 332 338 143 117 107 100 90 77 69
340 288 333 350 329 302 75 76 66 40 18 46 72 39 55 2 42 55 11 283 334 38 166 243 337 309 37 328 40 327 1 162 191 206 216 345 269 226 179 142 124 107 96 88 82
345 323 352 350 334 53 81 77 86 51 31 36 97 80 85 50 89 43 222 284 311 327 150 143 102 293 7 12 351 346 5 6 352 11 170 148 263 217 182 134 135 122 113 94 83
353 351 353 349 46 45 65 5 59 25 42 50 84 86 92 150 58 99 35 235 347 308 346 37 140 286 224 280 167 70 47 316 55 326 52 139 281 288 185 127 119 102 97 100 97
339 312 353 20 62 10 355 61 73 46 40 38 66 49 34 65 82 53 61 50 16 24 156 274 337 2 347 359 36 54 345 299 81 82 288 130 253 332 149 109 108 107 126 116 109
350 357 356 45 50 32 1 39 80 50 69 58 69 63 53 49 31 350 24 27 1 0 13 46 92 152 187 218 195 358 355 20 102 94 191 214 177 237 167 145 147 121 135 156 138
13 8 10 330 2 352 330 351 58 42 53 38 64 54 108 56 19 42 15 349 30 5 24 81 147 134 256 233 194 200 359 78 88 202 142 266 185 219 175 162 162 155 135 149 172
358 338 340 314 326 347 357 11 36 40 44 13 66 21 78 98 168 248 88 49 23 336 26 356 310 81 350 264 209 94 79 103 114 150 69 186 301 206 144 161 176 176 185 180 178
336 300 17 344 348 20 4 358 35 28 44 57 45 61 50 35 101 171 164 115 192 89 357 58 76 47 295 342 344 29 297 225 235 197 155 132 224 161 160 197 211 218 252 205 200